LHA1616 EDDN-LSZR

Flight info

Callsign LHA1616
Flight time 0h 44m
Altitude 20000
Route BOLS1G BOLSI Y167 AKANU DCT LURER DCT NIKWU DCT KPT
Aircraft DH8D/M-SDE1E2FGIJ1RWYZ/S

Departure

Time 2026-05-05 06:21
Airport Nuremberg Airport (EDDN)

Arrival

Time 2026-05-05 07:05
Airport Sankt Gallen Altenrhein Airport (LSZR)
Time Latitude Longitude Altitude Speed Heading
2026-05-05 05:58 49.49607 11.08069 1052 ft 0 kts 188°
2026-05-05 06:15 49.49602 11.08068 1052 ft 2 kts 188°
2026-05-05 06:16 49.49568 11.08073 1052 ft 7 kts 141°
2026-05-05 06:16 49.49548 11.08168 1052 ft 11 kts 99°
2026-05-05 06:16 49.49537 11.08297 1052 ft 12 kts 81°
2026-05-05 06:16 49.49593 11.08368 1052 ft 10 kts 29°
2026-05-05 06:17 49.49612 11.08462 1052 ft 9 kts 96°
2026-05-05 06:17 49.49603 11.08569 1052 ft 10 kts 98°
2026-05-05 06:17 49.49593 11.08679 1052 ft 10 kts 98°
2026-05-05 06:17 49.49582 11.08792 1052 ft 10 kts 98°
2026-05-05 06:18 49.49571 11.08907 1052 ft 10 kts 98°
2026-05-05 06:18 49.49560 11.09024 1052 ft 11 kts 98°
2026-05-05 06:18 49.49549 11.09140 1052 ft 11 kts 99°
2026-05-05 06:18 49.49536 11.09257 1052 ft 11 kts 99°
2026-05-05 06:19 49.49544 11.09371 1052 ft 10 kts 56°
2026-05-05 06:19 49.49580 11.09429 1052 ft 2 kts 58°
2026-05-05 06:19 49.49594 11.09465 1052 ft 8 kts 56°
2026-05-05 06:19 49.49660 11.09561 1052 ft 14 kts
2026-05-05 06:20 49.49702 11.09509 1052 ft 0 kts 282°
2026-05-05 06:20 49.49702 11.09508 1052 ft 0 kts 282°
2026-05-05 06:20 49.49713 11.09417 1052 ft 42 kts 279°
2026-05-05 06:20 49.49802 11.08475 1052 ft 129 kts 279°
2026-05-05 06:21 49.49968 11.06925 1313 ft 152 kts 281°
2026-05-05 06:21 49.50145 11.05266 1774 ft 166 kts 282°
2026-05-05 06:21 49.50324 11.03521 2418 ft 174 kts 281°
2026-05-05 06:21 49.50515 11.01625 2894 ft 185 kts 281°
2026-05-05 06:22 49.50712 10.99657 3465 ft 189 kts 281°
2026-05-05 06:22 49.50912 10.97662 4092 ft 190 kts 281°
2026-05-05 06:22 49.51114 10.95656 4710 ft 192 kts 280°
2026-05-05 06:22 49.51306 10.93648 5330 ft 194 kts 275°
2026-05-05 06:23 49.51071 10.91633 5915 ft 195 kts 245°
2026-05-05 06:23 49.50494 10.89772 6572 ft 194 kts 243°
2026-05-05 06:23 49.49912 10.87900 7199 ft 194 kts 243°
2026-05-05 06:23 49.49334 10.86045 7820 ft 194 kts 243°
2026-05-05 06:24 49.48757 10.84188 8426 ft 195 kts 243°
2026-05-05 06:24 49.48179 10.82326 9046 ft 194 kts 243°
2026-05-05 06:24 49.47605 10.80474 9632 ft 195 kts 242°
2026-05-05 06:24 49.47022 10.78592 10215 ft 197 kts 242°
2026-05-05 06:25 49.46248 10.76737 10301 ft 219 kts 220°
2026-05-05 06:25 49.44827 10.75896 10528 ft 230 kts 184°
2026-05-05 06:25 49.43206 10.75900 11042 ft 235 kts 180°
2026-05-05 06:25 49.41568 10.75928 11566 ft 238 kts 180°
2026-05-05 06:26 49.39906 10.75945 12121 ft 239 kts 181°
2026-05-05 06:26 49.38243 10.75952 12654 ft 241 kts 181°
2026-05-05 06:26 49.36584 10.75949 13144 ft 243 kts 181°
2026-05-05 06:26 49.34885 10.75939 13610 ft 246 kts 181°
2026-05-05 06:27 49.33162 10.75924 14117 ft 247 kts 181°
2026-05-05 06:27 49.29729 10.75882 14975 ft 252 kts 182°
2026-05-05 06:27 49.27963 10.75858 15414 ft 253 kts 182°
2026-05-05 06:28 49.26202 10.75832 15811 ft 256 kts 182°
2026-05-05 06:28 49.24426 10.75805 16228 ft 257 kts 182°
2026-05-05 06:28 49.22677 10.75531 16620 ft 256 kts 195°
2026-05-05 06:28 49.20983 10.74652 17009 ft 257 kts 201°
2026-05-05 06:29 49.19300 10.73698 17363 ft 259 kts 201°
2026-05-05 06:29 49.17608 10.72742 17728 ft 261 kts 201°
2026-05-05 06:29 49.15903 10.71782 18101 ft 262 kts 201°
2026-05-05 06:29 49.14204 10.70830 18481 ft 263 kts 201°
2026-05-05 06:30 49.12466 10.69859 18802 ft 265 kts 201°
2026-05-05 06:30 49.10749 10.68903 19168 ft 266 kts 201°
2026-05-05 06:30 49.08994 10.67928 19415 ft 270 kts 201°
2026-05-05 06:30 49.07219 10.66943 19742 ft 271 kts 201°
2026-05-05 06:31 49.05441 10.65985 20070 ft 272 kts 198°
2026-05-05 06:31 49.03582 10.65528 20312 ft 275 kts 186°
2026-05-05 06:31 49.01683 10.65350 20593 ft 276 kts 185°
2026-05-05 06:31 48.99763 10.65180 20847 ft 277 kts 185°
2026-05-05 06:32 48.97826 10.65005 21079 ft 278 kts 186°
2026-05-05 06:32 48.95894 10.64827 21319 ft 279 kts 186°
2026-05-05 06:32 48.93956 10.64646 21531 ft 281 kts 186°
2026-05-05 06:32 48.92009 10.64461 21743 ft 282 kts 186°
2026-05-05 06:33 48.90027 10.64272 21830 ft 288 kts 186°
2026-05-05 06:33 48.88005 10.64076 21853 ft 295 kts 186°
2026-05-05 06:33 48.85928 10.63875 21858 ft 302 kts 186°
2026-05-05 06:33 48.83793 10.63668 21860 ft 308 kts 186°
2026-05-05 06:34 48.81668 10.63462 21851 ft 307 kts 186°
2026-05-05 06:34 48.79552 10.63263 21849 ft 303 kts 186°
2026-05-05 06:34 48.77455 10.63064 21852 ft 299 kts 186°
2026-05-05 06:34 48.75411 10.62869 21850 ft 295 kts 186°
2026-05-05 06:35 48.73362 10.62672 21852 ft 293 kts 186°
2026-05-05 06:35 48.71355 10.62478 21853 ft 291 kts 186°
2026-05-05 06:35 48.69320 10.62281 21854 ft 290 kts 186°
2026-05-05 06:35 48.67318 10.62088 21855 ft 289 kts 186°
2026-05-05 06:36 48.65319 10.61894 21860 ft 288 kts 186°
2026-05-05 06:36 48.63331 10.61702 21862 ft 287 kts 186°
2026-05-05 06:36 48.61354 10.61510 21859 ft 286 kts 186°
2026-05-05 06:36 48.59367 10.61318 21859 ft 285 kts 186°
2026-05-05 06:37 48.57404 10.61129 21860 ft 284 kts 186°
2026-05-05 06:37 48.55432 10.60938 21861 ft 283 kts 186°
2026-05-05 06:37 48.53486 10.60750 21863 ft 282 kts 186°
2026-05-05 06:37 48.51527 10.60561 21865 ft 281 kts 186°
2026-05-05 06:38 48.49577 10.60374 21866 ft 280 kts 186°
2026-05-05 06:38 48.47622 10.60185 21868 ft 281 kts 186°
2026-05-05 06:38 48.45678 10.59888 21866 ft 281 kts 192°
2026-05-05 06:38 48.43790 10.59296 21867 ft 281 kts 194°
2026-05-05 06:39 48.41874 10.58652 21867 ft 281 kts 194°
2026-05-05 06:39 48.39977 10.58015 21870 ft 282 kts 194°
2026-05-05 06:39 48.38036 10.57367 21879 ft 283 kts 194°
2026-05-05 06:39 48.36128 10.56733 21877 ft 283 kts 194°
2026-05-05 06:40 48.34195 10.56092 21876 ft 284 kts 194°
2026-05-05 06:40 48.32280 10.55460 21878 ft 284 kts 194°
2026-05-05 06:40 48.30357 10.54827 21877 ft 285 kts 194°
2026-05-05 06:40 48.28416 10.54188 21871 ft 285 kts 194°
2026-05-05 06:41 48.26467 10.53548 21876 ft 286 kts 194°
2026-05-05 06:41 48.24543 10.52917 21872 ft 287 kts 194°
2026-05-05 06:41 48.22577 10.52273 21874 ft 287 kts 194°
2026-05-05 06:41 48.20634 10.51638 21873 ft 287 kts 194°
2026-05-05 06:42 48.18676 10.50998 21871 ft 288 kts 194°
2026-05-05 06:42 48.16735 10.50363 21868 ft 288 kts 194°
2026-05-05 06:42 48.14761 10.49720 21866 ft 289 kts 194°
2026-05-05 06:42 48.12819 10.49087 21868 ft 289 kts 194°
2026-05-05 06:43 48.10848 10.48445 21869 ft 289 kts 194°
2026-05-05 06:43 48.08894 10.47809 21870 ft 289 kts 194°
2026-05-05 06:43 48.06931 10.47171 21872 ft 289 kts 194°
2026-05-05 06:43 48.04962 10.46531 21870 ft 289 kts 194°
2026-05-05 06:44 48.03013 10.45899 21870 ft 289 kts 194°
2026-05-05 06:44 48.01041 10.45259 21873 ft 289 kts 194°
2026-05-05 06:44 47.99063 10.44618 21873 ft 289 kts 194°
2026-05-05 06:44 47.97110 10.43986 21878 ft 289 kts 194°
2026-05-05 06:45 47.95166 10.43356 21877 ft 289 kts 194°
2026-05-05 06:45 47.93188 10.42717 21874 ft 289 kts 194°
2026-05-05 06:45 47.91231 10.42085 21875 ft 288 kts 194°
2026-05-05 06:45 47.89270 10.41441 21880 ft 288 kts 195°
2026-05-05 06:46 47.87354 10.40645 21875 ft 288 kts 198°
2026-05-05 06:46 47.85421 10.39772 21873 ft 288 kts 198°
2026-05-05 06:46 47.83521 10.38919 21877 ft 288 kts 198°
2026-05-05 06:46 47.81613 10.38068 21878 ft 288 kts 198°
2026-05-05 06:47 47.79687 10.37213 21878 ft 288 kts 198°
2026-05-05 06:47 47.77775 10.36369 21870 ft 288 kts 198°
2026-05-05 06:47 47.75898 10.35441 21877 ft 286 kts 206°
2026-05-05 06:47 47.74426 10.33510 21891 ft 283 kts 237°
2026-05-05 06:48 47.73614 10.30832 21898 ft 284 kts 247°
2026-05-05 06:48 47.72922 10.28081 21899 ft 284 kts 247°
2026-05-05 06:48 47.72240 10.25339 21905 ft 284 kts 248°
2026-05-05 06:48 47.71561 10.22588 21905 ft 285 kts 248°
2026-05-05 06:49 47.70884 10.19819 21558 ft 289 kts 248°
2026-05-05 06:49 47.70199 10.17021 21054 ft 291 kts 248°
2026-05-05 06:49 47.69510 10.14204 20553 ft 292 kts 248°
2026-05-05 06:49 47.68828 10.11393 20080 ft 293 kts 248°
2026-05-05 06:50 47.68134 10.08531 19568 ft 294 kts 248°
2026-05-05 06:50 47.67444 10.05673 19064 ft 295 kts 248°
2026-05-05 06:50 47.66756 10.02823 18561 ft 296 kts 248°
2026-05-05 06:50 47.66069 9.99970 18097 ft 297 kts 248°
2026-05-05 06:51 47.65376 9.97091 17583 ft 297 kts 248°
2026-05-05 06:51 47.64687 9.94221 17108 ft 297 kts 248°
2026-05-05 06:51 47.63990 9.91321 16657 ft 297 kts 248°
2026-05-05 06:51 47.63305 9.88448 16189 ft 297 kts 248°
2026-05-05 06:52 47.62618 9.85580 15684 ft 296 kts 248°
2026-05-05 06:52 47.61942 9.82744 15167 ft 295 kts 248°
2026-05-05 06:52 47.61266 9.79877 14630 ft 294 kts 248°
2026-05-05 06:52 47.60602 9.77054 14124 ft 292 kts 248°
2026-05-05 06:53 47.59947 9.74240 13586 ft 291 kts 248°
2026-05-05 06:53 47.59289 9.71408 13044 ft 290 kts 248°
2026-05-05 06:53 47.58634 9.68619 12507 ft 289 kts 248°
2026-05-05 06:53 47.57969 9.65830 11967 ft 289 kts 248°
2026-05-05 06:54 47.57291 9.63035 11424 ft 288 kts 248°
2026-05-05 06:54 47.56605 9.60247 10878 ft 287 kts 248°
2026-05-05 06:54 47.55925 9.57527 10340 ft 287 kts 248°
2026-05-05 06:54 47.55220 9.54744 9787 ft 286 kts 248°
2026-05-05 06:55 47.54523 9.52040 9248 ft 286 kts 248°
2026-05-05 06:55 47.53816 9.49307 8697 ft 282 kts 248°
2026-05-05 06:55 47.53116 9.46631 8144 ft 278 kts 248°
2026-05-05 06:55 47.52418 9.43977 7589 ft 275 kts 248°
2026-05-05 06:56 47.51736 9.41392 7043 ft 271 kts 248°
2026-05-05 06:56 47.51062 9.38839 6533 ft 266 kts 248°
2026-05-05 06:56 47.50393 9.36324 6026 ft 262 kts 248°
2026-05-05 06:56 47.49735 9.33855 5524 ft 257 kts 247°
2026-05-05 06:57 47.49126 9.31385 5074 ft 250 kts 256°
2026-05-05 06:57 47.49113 9.28948 4939 ft 229 kts 278°
2026-05-05 06:57 47.49569 9.26832 4893 ft 204 kts 294°
2026-05-05 06:57 47.50119 9.24983 4883 ft 194 kts 294°
2026-05-05 06:58 47.50676 9.23115 4874 ft 202 kts 294°
2026-05-05 06:58 47.51238 9.21211 4880 ft 203 kts 294°
2026-05-05 06:58 47.51805 9.19292 4879 ft 205 kts 294°
2026-05-05 06:58 47.52417 9.17362 4882 ft 205 kts 303°
2026-05-05 06:59 47.53471 9.16024 4900 ft 201 kts 340°
2026-05-05 06:59 47.54832 9.15807 4913 ft 198 kts
2026-05-05 06:59 47.56127 9.16469 4888 ft 197 kts 37°
2026-05-05 06:59 47.56907 9.18046 4880 ft 192 kts 74°
2026-05-05 07:00 47.56864 9.19967 4905 ft 189 kts 111°
2026-05-05 07:00 47.56082 9.21508 4918 ft 189 kts 134°
2026-05-05 07:00 47.55134 9.22897 4895 ft 192 kts 134°
2026-05-05 07:00 47.54182 9.24298 4899 ft 195 kts 134°
2026-05-05 07:01 47.53212 9.25731 4888 ft 198 kts 134°
2026-05-05 07:01 47.52242 9.27168 4882 ft 200 kts 134°
2026-05-05 07:01 47.51349 9.28726 4873 ft 198 kts 120°
2026-05-05 07:01 47.50868 9.30600 4879 ft 195 kts 102°
2026-05-05 07:02 47.50685 9.32579 4880 ft 194 kts 95°
2026-05-05 07:02 47.50586 9.34578 4881 ft 193 kts 95°
2026-05-05 07:02 47.50473 9.36518 4712 ft 190 kts 96°
2026-05-05 07:02 47.50324 9.38459 4331 ft 189 kts 97°
2026-05-05 07:03 47.50147 9.40343 3964 ft 185 kts 98°
2026-05-05 07:03 47.49954 9.42199 3619 ft 180 kts 99°
2026-05-05 07:03 47.49766 9.43959 3287 ft 167 kts 99°
2026-05-05 07:03 47.49591 9.45605 3057 ft 158 kts 99°
2026-05-05 07:04 47.49416 9.47197 2765 ft 156 kts 99°
2026-05-05 07:04 47.49254 9.48741 2471 ft 149 kts 98°
2026-05-05 07:04 47.49103 9.50221 2207 ft 143 kts 98°
2026-05-05 07:04 47.48953 9.51660 1970 ft 143 kts 98°
2026-05-05 07:05 47.48804 9.53111 1720 ft 143 kts 98°
2026-05-05 07:05 47.48653 9.54563 1427 ft 144 kts 98°
2026-05-05 07:05 47.48528 9.55875 1319 ft 98 kts 100°
2026-05-05 07:05 47.48463 9.56394 1319 ft 29 kts 98°
2026-05-05 07:06 47.48442 9.56603 1317 ft 3 kts 96°
2026-05-05 07:06 47.48453 9.56603 1317 ft 3 kts 297°
2026-05-05 07:06 47.48458 9.56536 1318 ft 10 kts 274°
2026-05-05 07:06 47.48472 9.56386 1319 ft 19 kts 278°
2026-05-05 07:07 47.48496 9.56163 1319 ft 23 kts 278°
2026-05-05 07:07 47.48521 9.55909 1319 ft 25 kts 278°
2026-05-05 07:07 47.48550 9.55638 1318 ft 27 kts 278°
2026-05-05 07:07 47.48574 9.55399 1316 ft 13 kts 278°
2026-05-05 07:08 47.48600 9.55330 1316 ft 7 kts 338°
2026-05-05 07:08 47.48643 9.55317 1316 ft 6 kts 314°
2026-05-05 07:08 47.48665 9.55255 1314 ft 7 kts 297°
2026-05-05 07:08 47.48688 9.55186 1313 ft 6 kts 293°
2026-05-05 07:09 47.48709 9.55159 1313 ft 3 kts 32°
2026-05-05 07:09 47.48714 9.55179 1313 ft 1 kts 91°
2026-05-05 07:09 47.48713 9.55183 1313 ft 0 kts 95°
2026-05-05 07:09 47.48712 9.55198 1313 ft 2 kts 95°
2026-05-05 07:10 47.48715 9.55207 1313 ft 0 kts 38°
2026-05-05 07:10 47.48718 9.55208 1313 ft 0 kts